Weather in Ozerki

Russia / Kaliningrad Oblast     54°37′46″N   20°53′32″E
temp.,
°C
wind,
m/s
gust,
m/s
humid.,
%
clouds,
%
prec.,
mm/h
press.,
hPa
HPBL,
m
25 january, tue
tue2523:00+3wsw51296100 0.0 1027482
02:00+3wsw61295100 0.1 1026548
05:00+3w51294100 0.0 1024608
08:00+3wnw61295100 0.0 1023568
11:00+3wnw51096100 0.0 1023468
14:00+4nw4896100 0.1 1023402
17:00+3nw269590 0.1 1023140
20:00+1nw34955 0.1 102472
26 january, wed
wed2623:000n229653 0.0 102423
02:00−1nw119127 0.0 102410
05:00−1wsw229124 0.0 102313
08:000sw359796 0.0 1022133
11:00+1ssw4898100 0.2 1020323
14:00+4w61297100 0.9 1018745
17:00+3wsw71390100 0.0 1016788
20:00+3wsw81597100 0.2 1014981
27 january, thu
thu2723:00+4w81489100 0.5 1013992
02:00+4w61385100 0.8 1012678
05:00+4w61391100 0.2 1010685
08:00+4wsw71392100 0.4 1008927
11:00+3sw71497100 1.1 1006993
14:00+3wsw81696100 1.5 1002926
17:00+4wsw91791100 0.7 9991142
20:00+4wsw112092100 1.3 9971340
28 january, fri
fri2823:00+3wsw112088100 0.1 9951341
02:00+3w111996100 3.5 9941237
05:00+3wnw81395100 1.6 995991
08:00+2nnw101794100 2.3 9981245
11:00+2nnw111685100 0.4 10041238
14:00+2nnw10157896 0.5 10081370
17:00+2nnw91579100 0.1 10131347
20:00+1nnw81384100 0.4 10161190
29 january, sat
sat2923:00+1nnw7137350 0.2 1019966
02:00+1nnw6127014 0.2 1021547
05:000nw377444 0.0 1022200
08:000sw3577100 0.0 1020116
11:00+1ssw61270100 0.0 1017472
14:00+2ssw81572100 0.0 1011877
17:00+1ssw101997100 2.8 1002943
20:00+3sw112390100 5.6 9951089